FW1140 Weather Reports


time (UTC)temp
F
wind
direction
speed
knots
gust
knots
rain 1hr
in
rain 24hr
in
rain mn
in
humidity
%
barometer
mb
20260505041553 41 266 5.2 7.0 0.00 0.00 0.00 60 1006.2
20260505040050 42 285 4.3 8.7 0.00 0.00 0.00 58 1006.3
20260505034548 42 274 5.2 10.4 0.00 0.00 0.00 57 1006.3
20260505033105 43 281 6.1 10.4 0.00 0.00 0.00 56 1006.0
20260505031542 44 295 5.2 8.7 0.00 0.00 0.00 54 1006.1
20260505030042 44 280 6.1 9.6 0.00 0.00 0.00 53 1005.8
20260505024541 44 287 5.2 7.8 0.00 0.00 0.00 53 1005.8
20260505023046 44 276 4.3 7.8 0.00 0.00 0.00 51 1005.5
20260505021534 44 295 5.2 8.7 0.00 0.00 0.00 50 1005.2
20260505020031 45 278 6.1 9.6 0.00 0.00 0.00 49 1004.9
20260505014531 46 289 6.1 11.3 0.00 0.00 0.00 47 1004.8
20260505013024 47 302 7.8 13.0 0.00 0.00 0.00 45 1004.6
20260505011522 48 319 11.3 16.5 0.00 0.00 0.00 44 1004.5
20260505010019 49 290 10.4 16.5 0.00 0.00 0.00 43 1004.4
20260505004535 50 329 12.2 20.0 0.00 0.00 0.00 42 1004.3
20260505003016 50 338 13.9 18.2 0.00 0.00 0.00 42 1004.1
20260505001515 50 337 15.6 20.9 0.00 0.00 0.00 41 1003.8
20260505000020 51 320 13.9 20.0 0.00 0.00 0.00 40 1003.9
20260504234525 52 297 13.0 22.6 0.00 0.00 0.00 38 1004.0
20260504233011 53 290 13.0 22.6 0.00 0.00 0.00 37 1003.8
20260504231530 53 330 17.4 22.6 0.00 0.00 0.00 38 1003.6
20260504230011 53 317 18.2 24.3 0.00 0.00 0.00 38 1003.6
20260504224508 53 325 15.6 24.3 0.00 0.00 0.00 37 1003.5
20260504223008 52 301 17.4 23.5 0.00 0.00 0.00 38 1003.4
20260504221506 53 315 16.5 26.1 0.00 0.00 0.00 38 1003.3
20260504220006 53 304 17.4 28.7 0.00 0.00 0.00 39 1003.3
20260504214509 52 304 18.2 22.6 0.00 0.00 0.00 38 1003.3
20260504213006 53 304 20.0 29.5 0.00 0.00 0.00 37 1003.0
20260504211503 53 307 20.9 28.7 0.00 0.00 0.00 37 1002.9
20260504210001 52 307 20.0 25.2 0.00 0.00 0.00 40 1002.9
20260504204500 51 309 13.9 27.8 0.00 0.00 0.00 42 1003.0
20260504203100 52 307 15.6 33.0 0.00 0.00 0.00 43 1003.0
20260504201559 52 303 19.1 31.3 0.00 0.00 0.00 45 1002.8
20260504200058 52 308 20.0 28.7 0.00 0.00 0.00 44 1002.5
20260504194558 53 334 20.0 30.4 0.00 0.00 0.00 45 1002.4
20260504193054 53 316 19.1 28.7 0.00 0.00 0.00 45 1002.3
20260504191553 54 322 21.7 31.3 0.00 0.00 0.00 43 1002.0
20260504190059 54 300 18.2 29.5 0.00 0.00 0.00 43 1002.0
20260504184602 55 297 20.9 29.5 0.00 0.00 0.00 45 1001.9
20260504183057 55 319 20.0 28.7 0.00 0.00 0.00 44 1001.5
20260504181549 54 291 16.5 26.9 0.00 0.00 0.00 45 1001.4
20260504180045 54 297 17.4 25.2 0.00 0.00 0.00 45 1001.2
20260504174548 55 290 19.1 29.5 0.00 0.00 0.00 43 1000.8
20260504173042 55 321 18.2 26.9 0.00 0.00 0.00 43 1000.4
20260504171545 55 283 15.6 24.3 0.00 0.00 0.00 42 1000.4
20260504081511 57 198 20.0 26.1 0.00 0.00 0.00 47 994.7
20260504070104 58 224 16.5 21.7 0.00 0.00 0.00 46 996.0